User: anonymous   Login
Location: Oshawa
(43.9000°N, 78.8670°W)
Time: 23:12:00
(UTC-04:00)
Language:

Thor Agena Rocket - Orbit

View from above orbital plane
View from above orbital plane
View from above satellite
View from above satellite

Ground track
Ground track

The orbit data is extracted from the following two-line orbital elements,

1 00733U 64002A   16238.44821510  .00000027  00000-0  27972-4 0  9990
2 00733  99.1087  42.7697 0033185 318.7430  41.1245 14.32227098739970
Epoch (UTC): 25 August 2016 10:45:25
Eccentricity: 0.0033185
inclination: 99.1087°
perigee height: 760 km
apogee height: 808 km
right ascension of ascending node: 42.7697°
argument of perigee: 318.7430°
revolutions per day: 14.32227098
mean anomaly at epoch: 41.1245°
orbit number at epoch: 73997

The dashed part of the orbit path shows where the satellite is in the earth's shadow,  

DLR